This demonstration page uses our WeatherBlox Daily Observations layout. Learn more.

Left ArrowRight Arrow

Hourly Observations for November 22, 2015

Temp ( °F °C ) Dew Point ( °F °C ) Humidity (%) Winds ( mph kmh ) Pressure ( in mb ) Visibility ( mi km ) Precip ( " mm )
12:53 am 00:53 Cloudy 52 11.1 43 6.1 72 72 NNW 10 17 30.00 1016 10 16 0.00 0.00
1:53 am 01:53 Cloudy 50 10 41 5 71 71 NNW 9 15 30.00 1016 10 16 0.00 0.00
2:16 am 02:16 Cloudy 48 9 39 4 71 71 NNW 14 22 30.03 1017 10 16 0.00 0.00
2:53 am 02:53 Cloudy 48 8.9 39 3.9 71 71 NNW 9 15 30.00 1016 10 16 0.00 0.00
3:33 am 03:33 Cloudy 47 8.3 38 3.3 71 71 NNW 13 20 30.03 1017 10 16 0.00 0.00
3:53 am 03:53 Cloudy 45 7.2 36 2.2 71 71 NNW 12 19 30.01 1016 10 16 0.00 0.00
4:44 am 04:44 Mostly Cloudy 43 6 34 1 71 71 NNW 8 13 30.06 1018 10 16 0.00 0.00
4:53 am 04:53 Partly Cloudy 42 5.6 33 0.6 71 71 NNW 10 17 30.04 1017 10 16 0.00 0.00
5:53 am 05:53 Partly Cloudy 40 4.4 30 -1.1 68 68 NW 9 15 30.04 1017 10 16 0.00 0.00
6:53 am 06:53 Clear 37 2.8 27 -2.8 67 67 NNW 12 19 30.06 1018 10 16 0.00 0.00
7:53 am 07:53 Sunny 35 1.7 26 -3.3 70 70 NW 12 19 30.09 1019 10 16 0.00 0.00
8:53 am 08:53 Sunny 37 2.8 26 -3.3 65 65 NW 12 19 30.10 1019 10 16 0.00 0.00
9:53 am 09:53 Sunny 40 4.4 26 -3.3 58 58 NW 16 26 30.12 1020 10 16 0.00 0.00
10:53 am 10:53 Sunny 42 5.6 26 -3.3 53 53 NW 15 24 30.11 1020 10 16 0.00 0.00
11:53 am 11:53 Sunny 45 7.2 26 -3.3 48 48 NW 17 28 30.09 1019 10 16 0.00 0.00
12:53 pm 12:53 Sunny 47 8.3 26 -3.3 44 44 N 9 15 30.07 1018 10 16 0.00 0.00
1:53 pm 13:53 Sunny 49 9.4 26 -3.3 41 41 NW 14 22 30.05 1018 10 16 0.00 0.00
2:53 pm 14:53 Sunny 48 8.9 23 -5 37 37 NNW 13 20 30.06 1018 10 16 0.00 0.00
3:53 pm 15:53 Sunny 47 8.3 20 -6.7 34 34 NW 15 24 30.07 1018 10 16 0.00 0.00
4:53 pm 16:53 Sunny 46 7.8 23 -5 40 40 NNW 12 19 30.08 1019 10 16 0.00 0.00
5:53 pm 17:53 Clear 43 6.1 24 -4.4 47 47 NNW 6 9 30.09 1019 10 16 0.00 0.00
6:53 pm 18:53 Clear 41 5 25 -3.9 53 53 N 6 9 30.11 1020 10 16 0.00 0.00
7:53 pm 19:53 Clear 40 4.4 25 -3.9 55 55 NNW 5 7 30.13 1020 10 16 0.00 0.00
8:53 pm 20:53 Clear 39 3.9 24 -4.4 55 55 NNW 5 7 30.14 1021 10 16 0.00 0.00
9:53 pm 21:53 Clear 38 3.3 24 -4.4 57 57 NNW 5 7 30.16 1021 10 16 0.00 0.00
10:53 pm 22:53 Clear 37 2.8 22 -5.6 54 54 NNW 7 11 30.17 1022 10 16 0.00 0.00
11:53 pm 23:53 Clear 36 2.2 22 -5.6 57 57 NNW 3 6 30.17 1022 10 16 0.00 0.00

Powered by AerisWeather